Location: ?????????
(55.6553°N, 38.9075°E)
Time: 00:22:33
(UTC+00:00)

Cosmos 1697 Rocket - Pass Details

Date: 18 October 2019
Orbit: 832 x 843 km, 71.0° (Epoch: 14 November)

Event Time Altitude Azimuth Distance (km) Brightness Sun altitude
Exits shadow 01:32:28 16° 318° (NW) 2,075 4.5 -21.4°
Maximum altitude 01:34:33 19° 345° (NNW) 1,906 4.5 -21.1°
Drops below altitude 10° 01:38:33 10° 30° (NNE) 2,474 5.7 -20.6°
Sets 01:41:45 0° 48° (NE) 3,408 6.9 -20.1°
